N4BEW Weather Reports


time (UTC)temp
C
wind
direction
speed
KPH
gust
KPH
rain 1hr
cm
rain 24hr
cm
rain mn
cm
humidity
%
barometer
mb
20260504230956 23 179 4.8 6.4 0.00 0.00 0.00 41 1016.3
20260504225436 23 157 4.8 4.8 0.00 0.00 0.00 40 1016.3
20260504223932 24 175 3.2 9.7 0.00 0.00 0.00 39 1016.3
20260504222429 24 160 6.4 12.9 0.00 0.00 0.00 38 1016.6
20260504220925 23 161 4.8 4.8 0.00 0.00 0.00 38 1016.6
20260504215422 24 251 3.2 11.3 0.00 0.00 0.00 39 1016.3
20260504213918 25 172 3.2 8.0 0.00 0.00 0.00 38 1016.3
20260504212412 24 110 11.3 12.9 0.00 0.00 0.00 38 1016.3
20260504210908 25 170 6.4 8.0 0.00 0.00 0.00 37 1016.3
20260504205404 24 170 6.4 12.9 0.00 0.00 0.00 36 1016.6
20260504203900 25 124 16.1 16.1 0.00 0.00 0.00 34 1016.6
20260504202341 25 226 6.4 11.3 0.00 0.00 0.00 32 1016.9
20260504200837 24 154 4.8 9.7 0.00 0.00 0.00 40 1016.9
20260504195333 25 186 3.2 3.2 0.00 0.00 0.00 36 1017.3
20260504193812 25 122 4.8 6.4 0.00 0.00 0.00 36 1017.3
20260504192308 25 331 6.4 9.7 0.00 0.00 0.00 35 1017.6
20260504190804 25 228 3.2 6.4 0.00 0.00 0.00 36 1017.6
20260504185301 24 308 9.7 9.7 0.00 0.00 0.00 36 1017.9
20260504183756 24 204 1.6 9.7 0.00 0.00 0.00 34 1018.3
20260504182252 23 173 3.2 4.8 0.00 0.00 0.00 37 1018.3
20260504180733 24 286 3.2 4.8 0.00 0.00 0.00 39 1018.6
20260504175229 24 165 9.7 9.7 0.00 0.00 0.00 39 1018.6
20260504173710 23 202 4.8 9.7 0.00 0.00 0.00 42 1019.0
20260504172206 24 129 3.2 8.0 0.00 0.00 0.00 42 1019.3
20260504170701 22 290 4.8 9.7 0.00 0.00 0.00 43 1019.3
20260504150634 20 177 4.8 8.0 0.00 0.00 0.00 50 1020.3
20260504140619 17 148 3.2 4.8 0.00 0.00 0.00 60 1020.7
20260504130547 11 172 1.6 3.2 0.00 0.00 0.00 86 1020.7
20260504110457 6 215 0.0 0.0 0.00 0.00 0.00 96 1019.6
20260504100431 6 204 0.0 0.0 0.00 0.00 0.00 94 1019.6
20260504081901 7 206 0.0 0.0 0.00 0.00 0.00 90 1020.0
20260504080358 7 206 0.0 0.0 0.00 0.00 0.00 89 1020.0
20260504070328 8 232 0.0 0.0 0.00 0.00 0.00 88 1020.3
20260504050240 10 222 0.0 3.2 0.00 0.00 0.00 77 1020.7
20260504044736 11 220 0.0 0.0 0.00 0.00 0.00 76 1021.0
20260504043232 11 225 0.0 0.0 0.00 0.00 0.00 73 1020.7
20260504041728 11 227 0.0 0.0 0.00 0.00 0.00 71 1020.7
20260504040222 11 225 0.0 0.0 0.00 0.00 0.00 72 1020.7
20260504034718 11 224 0.0 0.0 0.00 0.00 0.00 71 1020.7
20260504033212 11 219 0.0 0.0 0.00 0.00 0.00 70 1020.7
20260504031708 12 224 0.0 0.0 0.00 0.00 0.00 71 1020.7
20260504030205 12 221 0.0 0.0 0.00 0.00 0.00 70 1020.7
20260504024700 12 223 0.0 0.0 0.00 0.00 0.00 69 1020.7
20260504023157 12 222 0.0 0.0 0.00 0.00 0.00 68 1020.3
20260504021653 13 222 0.0 0.0 0.00 0.00 0.00 67 1020.3
20260504020149 13 244 0.0 0.0 0.00 0.00 0.00 65 1020.0
20260504014646 13 231 0.0 0.0 0.00 0.00 0.00 65 1019.6
20260504013142 13 229 0.0 0.0 0.00 0.00 0.00 64 1019.6
20260504011623 14 234 0.0 0.0 0.00 0.00 0.00 61 1019.3
20260504010120 15 216 0.0 0.0 0.00 0.00 0.00 60 1019.3
20260504004614 16 217 0.0 0.0 0.00 0.00 0.00 56 1019.3
20260504003110 17 244 0.0 0.0 0.00 0.00 0.00 53 1019.0